FW5784 Weather Reports


time (UTC)temp
C
wind
direction
speed
KPH
gust
KPH
rain 1hr
cm
rain 24hr
cm
rain mn
cm
humidity
%
barometer
mb
20260504024517 16 242 6.4 12.9 0.00 0.13 0.13 62 950.8
20260504024012 16 234 4.8 12.9 0.00 0.13 0.13 62 950.8
20260504023513 16 222 4.8 9.7 0.00 0.13 0.13 61 950.8
20260504023011 16 200 3.2 8.0 0.00 0.13 0.13 60 950.7
20260504022513 16 232 3.2 8.0 0.00 0.13 0.13 60 950.7
20260504022011 16 231 3.2 8.0 0.00 0.13 0.13 59 950.6
20260504021510 16 234 3.2 9.7 0.00 0.13 0.13 58 950.6
20260504021010 16 198 3.2 9.7 0.00 0.13 0.13 58 950.5
20260504020509 16 200 3.2 8.0 0.00 0.13 0.13 58 950.5
20260504020014 16 215 3.2 8.0 0.00 0.13 0.13 58 950.4
20260504015510 16 198 3.2 8.0 0.00 0.13 0.13 58 950.4
20260504015010 16 209 3.2 8.0 0.00 0.13 0.13 58 950.3
20260504014513 16 219 1.6 8.0 0.00 0.13 0.13 58 950.4
20260504014011 16 190 3.2 8.0 0.00 0.13 0.13 59 950.4
20260504013509 16 190 0.0 6.4 0.00 0.13 0.13 59 950.3
20260504013010 16 183 1.6 6.4 0.00 0.13 0.13 59 950.3
20260504012510 16 185 1.6 3.2 0.00 0.13 0.13 59 950.2
20260504012009 17 185 0.0 6.4 0.00 0.13 0.13 57 950.3
20260504011509 17 188 1.6 6.4 0.00 0.13 0.13 56 950.3
20260504011008 17 223 1.6 4.8 0.00 0.13 0.13 56 950.3
20260504010507 18 223 0.0 3.2 0.00 0.13 0.13 55 950.2
20260504010009 18 360 0.0 4.8 0.00 0.13 0.13 53 950.1
20260504005508 18 360 1.6 4.8 0.00 0.13 0.13 53 950.2
20260504005008 19 223 1.6 6.4 0.00 0.13 0.13 50 950.1
20260504004510 19 221 3.2 8.0 0.00 0.13 0.13 50 950.1
20260504004008 19 227 4.8 8.0 0.00 0.13 0.13 49 950.1
20260504003508 20 213 3.2 8.0 0.00 0.13 0.13 49 950.1
20260504003007 20 248 1.6 8.0 0.00 0.13 0.13 48 950.1
20260504002507 20 233 4.8 8.0 0.00 0.13 0.13 48 950.1
20260504002007 20 207 3.2 11.3 0.00 0.13 0.13 48 950.1
20260504001507 20 198 6.4 11.3 0.00 0.13 0.13 47 950.1
20260504001006 20 230 6.4 16.1 0.00 0.13 0.13 46 950.1
20260504000505 20 225 6.4 16.1 0.00 0.13 0.13 46 950.1
20260504000005 20 220 4.8 16.1 0.00 0.13 0.13 46 950.1
20260503235505 20 237 6.4 16.1 0.00 0.13 0.13 45 950.2
20260503235007 20 242 6.4 16.1 0.00 0.13 0.13 46 950.1
20260503234505 20 259 9.7 20.9 0.00 0.13 0.13 46 950.2
20260503234008 21 265 12.9 22.5 0.00 0.13 0.13 44 950.3
20260503233504 21 265 11.3 22.5 0.00 0.13 0.13 45 950.1
20260503233005 21 259 12.9 20.9 0.00 0.13 0.13 45 950.2
20260503232503 21 247 11.3 19.3 0.00 0.13 0.13 44 950.2
20260503232003 21 250 12.9 24.1 0.00 0.13 0.13 44 950.3
20260503231503 21 250 12.9 29.0 0.00 0.13 0.13 45 950.4
20260503231004 21 272 17.7 29.0 0.00 0.13 0.13 45 950.3
20260503230502 21 248 16.1 25.7 0.00 0.13 0.13 45 950.4
20260503230003 21 245 11.3 20.9 0.00 0.13 0.13 45 950.5
20260503225600 21 217 16.1 20.9 0.00 0.13 0.13 45 950.5
20260503225101 21 257 17.7 25.7 0.00 0.13 0.13 44 950.5
20260503225002 21 235 16.1 25.7 0.00 0.13 0.13 45 950.5
20260503224559 21 250 19.3 27.4 0.00 0.13 0.13 45 950.6
20260503224059 21 256 16.1 27.4 0.00 0.13 0.13 44 950.6
20260503223558 21 269 17.7 30.6 0.00 0.13 0.13 44 950.6
20260503223058 21 260 20.9 30.6 0.00 0.13 0.13 45 950.7
20260503222601 21 236 16.1 30.6 0.00 0.13 0.13 47 950.6
20260503222057 21 267 20.9 27.4 0.00 0.13 0.13 45 950.7
20260503221557 21 263 14.5 29.0 0.00 0.13 0.13 45 950.7
20260503221059 20 238 22.5 29.0 0.00 0.13 0.13 45 950.7
20260503220556 20 250 11.3 29.0 0.00 0.13 0.13 47 950.8
20260503220156 20 242 17.7 35.4 0.00 0.13 0.13 47 950.7
20260503215554 20 242 12.9 24.1 0.00 0.13 0.13 46 950.7
20260503215053 20 265 14.5 24.1 0.00 0.13 0.13 48 950.7
20260503214554 20 251 16.1 30.6 0.00 0.13 0.13 47 950.7
20260503214052 20 257 20.9 32.2 0.00 0.13 0.13 47 950.8
20260503213556 20 288 22.5 33.8 0.00 0.13 0.13 47 950.7
20260503213052 20 239 25.7 33.8 0.00 0.13 0.13 46 950.7
20260503212552 20 258 22.5 38.6 0.00 0.13 0.13 47 950.9
20260503212050 20 223 16.1 27.4 0.00 0.13 0.13 48 950.9
20260503211604 20 206 17.7 27.4 0.00 0.13 0.13 47 950.9
20260503211052 20 231 14.5 27.4 0.00 0.13 0.13 47 950.9
20260503210548 20 245 19.3 40.2 0.00 0.13 0.13 48 951.1
20260503210049 20 244 20.9 40.2 0.00 0.13 0.13 47 951.1
20260503205546 20 218 17.7 33.8 0.00 0.13 0.13 47 951.2
20260503205048 19 218 17.7 32.2 0.00 0.13 0.13 48 951.3
20260503204552 19 211 19.3 35.4 0.00 0.13 0.13 47 951.3
20260503204044 19 263 20.9 30.6 0.00 0.13 0.13 46 951.3
20260503203543 19 221 17.7 30.6 0.00 0.13 0.13 47 951.3
20260503203041 19 155 17.7 35.4 0.00 0.13 0.13 49 951.5
20260503202543 19 217 20.9 38.6 0.00 0.13 0.13 49 951.5
20260503202041 19 221 19.3 38.6 0.00 0.13 0.13 48 951.6
20260503201540 18 227 20.9 41.8 0.00 0.13 0.13 48 951.8
20260503201038 18 227 20.9 41.8 0.00 0.13 0.13 48 951.8
20260503200536 18 242 25.7 41.8 0.00 0.13 0.13 50 951.8
20260503200037 18 244 20.9 37.0 0.00 0.13 0.13 49 952.0
20260503195536 18 360 17.7 38.6 0.00 0.13 0.13 49 952.0
20260503195035 18 360 22.5 38.6 0.00 0.13 0.13 50 952.0
20260503194534 18 360 20.9 33.8 0.00 0.13 0.13 49 952.3
20260503194035 18 360 20.9 33.8 0.00 0.13 0.13 50 952.2
20260503193532 18 360 12.9 40.2 0.00 0.13 0.13 49 952.2
20260503193036 18 360 27.4 40.2 0.00 0.13 0.13 49 952.4
20260503192531 18 360 19.3 38.6 0.00 0.13 0.13 50 952.5
20260503192030 18 360 17.7 41.8 0.00 0.13 0.13 51 952.7
20260503191532 18 360 27.4 41.8 0.00 0.13 0.13 49 952.7
20260503191030 18 360 27.4 37.0 0.00 0.13 0.13 49 952.8
20260503190530 18 360 19.3 38.6 0.00 0.13 0.13 52 952.8
20260503190028 18 360 25.7 38.6 0.00 0.13 0.13 50 952.9
20260503185527 18 360 17.7 40.2 0.00 0.13 0.13 50 952.9
20260503185026 17 360 17.7 40.2 0.00 0.13 0.13 49 952.9
20260503184527 17 360 19.3 40.2 0.00 0.13 0.13 49 953.1
20260503184024 17 360 24.1 40.2 0.00 0.13 0.13 51 953.0
20260503183523 17 360 27.4 49.9 0.00 0.13 0.13 51 953.1
20260503183032 16 360 17.7 49.9 0.00 0.13 0.13 57 953.1
20260503182520 16 360 17.7 30.6 0.00 0.13 0.13 58 953.2
20260503182019 16 360 14.5 35.4 0.00 0.13 0.13 57 953.3
20260503181527 16 360 17.7 35.4 0.00 0.13 0.13 58 953.5
20260503181019 16 360 14.5 40.2 0.00 0.13 0.13 59 953.4
20260503180519 16 360 22.5 40.2 0.00 0.13 0.13 56 953.6
20260503180017 16 360 17.7 43.5 0.00 0.13 0.13 57 953.6
20260503175515 16 360 20.9 43.5 0.00 0.13 0.13 56 953.7
20260503175014 16 360 20.9 37.0 0.00 0.13 0.13 57 953.7
20260503174516 16 360 16.1 40.2 0.00 0.13 0.13 57 953.7
20260503174013 16 360 29.0 40.2 0.00 0.13 0.13 53 953.9
20260503173512 16 360 9.7 33.8 0.00 0.13 0.13 60 953.8
20260503173036 16 360 12.9 33.8 0.00 0.13 0.13 59 953.8
20260503172511 15 360 12.9 29.0 0.00 0.13 0.13 60 953.9
20260503172010 15 360 16.1 35.4 0.00 0.13 0.13 58 953.8
20260503171512 15 360 16.1 35.4 0.00 0.13 0.13 60 953.8
20260503171007 15 360 14.5 40.2 0.00 0.13 0.13 60 953.9
20260503170506 15 360 19.3 40.2 0.00 0.13 0.13 59 954.0
20260503150540 8 360 4.8 14.5 0.08 0.10 0.10 84 956.4
20260503131026 10 360 8.0 19.3 0.00 0.00 0.00 67 957.4
20260503130524 10 360 9.7 20.9 0.00 0.00 0.00 67 957.5
20260503110504 8 360 8.0 22.5 0.00 0.00 0.00 63 957.4
20260503100115 8 360 11.3 17.7 0.00 0.00 0.00 61 957.5
20260503081544 7 360 4.8 9.7 0.00 0.00 0.00 60 958.1
20260503081043 7 360 3.2 12.9 0.00 0.00 0.00 61 958.1
20260503080545 7 360 4.8 12.9 0.00 0.00 0.00 61 958.1
20260503072542 7 360 3.2 9.7 0.00 0.00 0.00 59 958.3
20260503072038 7 360 1.6 12.9 0.00 0.00 0.00 59 958.3
20260503071538 7 360 4.8 12.9 0.00 0.00 0.00 59 958.2
20260503071036 7 360 4.8 12.9 0.00 0.00 0.00 59 958.3
20260503070535 7 360 3.2 12.9 0.00 0.00 0.00 59 958.3
20260503055026 8 360 4.8 9.7 0.00 0.00 0.00 58 958.8
20260503054528 8 360 4.8 9.7 0.00 0.00 0.00 58 958.8
20260503054025 8 360 4.8 9.7 0.00 0.00 0.00 58 958.9
20260503053524 7 360 4.8 8.0 0.00 0.00 0.00 58 958.9
20260503053034 7 360 3.2 8.0 0.00 0.00 0.00 59 959.0
20260503052530 7 360 4.8 8.0 0.00 0.00 0.00 59 959.0
20260503052021 7 360 3.2 9.7 0.00 0.00 0.00 59 959.0
20260503051522 7 360 4.8 9.7 0.00 0.00 0.00 59 959.1
20260503051019 7 360 3.2 12.9 0.00 0.00 0.00 58 959.1
20260503050518 8 360 6.4 12.9 0.00 0.00 0.00 59 959.1
20260503050017 8 360 4.8 12.9 0.00 0.00 0.00 58 959.2
20260503045517 8 360 4.8 12.9 0.00 0.00 0.00 58 959.2
20260503045016 8 360 4.8 12.9 0.00 0.00 0.00 58 959.2
20260503044536 8 360 4.8 12.9 0.00 0.00 0.00 58 959.2
20260503044018 8 360 3.2 12.9 0.00 0.00 0.00 58 959.3
20260503043515 8 360 4.8 9.7 0.00 0.00 0.00 58 959.3
20260503043015 8 360 4.8 9.7 0.00 0.00 0.00 58 959.3
20260503042515 8 360 4.8 9.7 0.00 0.00 0.00 58 959.3
20260503042015 8 360 4.8 9.7 0.00 0.00 0.00 57 959.4
20260503041515 8 360 6.4 9.7 0.00 0.00 0.00 57 959.5
20260503041018 8 360 4.8 14.5 0.00 0.00 0.00 57 959.3
20260503040514 8 360 4.8 14.5 0.00 0.00 0.00 57 959.3
20260503040017 8 360 3.2 14.5 0.00 0.00 0.00 57 959.4
20260503035513 8 360 4.8 14.5 0.00 0.00 0.00 57 959.6
20260503035013 8 360 4.8 12.9 0.00 0.00 0.00 57 959.6
20260503034513 8 360 4.8 12.9 0.00 0.00 0.00 57 959.6
20260503034012 8 360 4.8 8.0 0.00 0.00 0.00 57 959.7
20260503033512 8 360 3.2 8.0 0.00 0.00 0.00 56 959.6
20260503033014 8 360 4.8 8.0 0.00 0.00 0.00 56 959.7
20260503032512 8 360 3.2 9.7 0.00 0.00 0.00 56 959.7
20260503032017 8 360 3.2 9.7 0.00 0.00 0.00 56 959.8
20260503031513 8 360 3.2 9.7 0.00 0.00 0.00 56 959.7
20260503031013 8 360 1.6 6.4 0.00 0.00 0.00 55 959.9
20260503030512 8 360 3.2 6.4 0.00 0.00 0.00 55 960.0
20260503030012 8 360 3.2 8.0 0.00 0.00 0.00 55 959.9
20260503025512 8 360 3.2 8.0 0.00 0.00 0.00 55 959.9
20260503025011 9 360 3.2 6.4 0.00 0.00 0.00 55 959.9